Hourly Data Report for January 19, 2004

All times are specified in Local Standard Time (LST). Add 1 hour to adjust for Daylight Saving Time where and when it is observed.

SHERBROOKE A
QUEBEC

45°26'00.000" N
71°41'00.000" W
241.40 m
7028124
71610
YSC

Download Data

Hourly Data (January 2004)
Hourly Data Report for January 19, 2004
TIME Temp Definition
°C
Dew Point Temp Definition
°C
Rel Hum Definition
%
Wind Dir Definition
10's deg

Wind Spd Definition
km/h
Visibility Definition
km
Stn Press Definition
kPa
Hmdx Definition


Wind Chill Definition


Weather Definition


00:00 -9.9 -12.3 83 25 11 6.4 96.38   -15 Snow
01:00 -9.6 -12.1 82 27 7 1.9 96.37   -14 Snow
02:00 -10.0 -13.1 78 26 11 8.0 96.40   -16 Snow
03:00 -10.3 -13.6 77 25 17 4.8 96.39   -18 Snow
04:00 -11.1 -14.3 77 26 17 4.8 96.43   -19 Snow
05:00 -12.1 -15.5 76 26 26 6.4 96.47   -22 Snow
06:00 -13.9 -17.5 74 26 17 15.0 96.52   -22  
07:00 -14.6 -18.1 75 26 13 8.0 96.57   -22 Snow
08:00 -14.6 -18.2 74 26 19 16.1 96.61   -23 Snow Showers
09:00 -14.3 -17.8 75 25 19 2.0 96.63   -23 Snow Showers
10:00 -14.2 -17.9 73 24 13 12.9 96.68   -21 Snow Showers
11:00 -13.5 -18.0 69 25 22 19.3 96.64   -23 Snow Showers
12:00 -13.6 -17.4 73 25 24 4.0 96.61   -23 Snow Showers
13:00 -13.2 -16.9 74 26 28 1.2 96.61   -23 Snow Showers
14:00 -13.2 -16.7 75 27 26 1.6 96.67   -23 Snow
15:00 -13.3 -16.6 76 26 17 1.6 96.76   -21 Snow
16:00 -13.2 -16.5 76 25 22 1.6 96.86   -22 Snow
17:00 -13.2 -16.1 79 26 11 1.6 96.95   -19 Snow
18:00 -13.2 -15.7 81 22 6 1.0 97.01   -17 Snow
19:00 -12.9 -15.4 81 23 9 1.0 97.04   -18 Snow
20:00 -12.1 -14.6 82 25 11 1.9 97.06   -18 Snow
21:00 -11.7 -14.2 82 26 15 2.3 97.11   -19 Snow
22:00 -11.6 -14.3 80 24 11 2.1 97.16   -18 Snow
23:00 -11.5 -14.1 81 25 13 2.3 97.19   -18 Snow

Notes on Data Quality.

Legend

  • E = Estimated
  • M = Missing
  • NA = Not Available
Date modified: